This is the latest recevied weather packets stored in our database for station/object K9ABJ. If no packets are shown the sender has not sent any weather packets the latest 10 day(s).
| Time | Temp. | Humidity | Pressure | Rain* | Wind** | Luminosity | Snow |
|---|---|---|---|---|---|---|---|
| 1788531262 | 28.33° C | 83% | 1015.4 hPa | 0 mm | - | 234 W/m² | - |
| 1788530958 | 28.33° C | 81% | 1015.9 hPa | 0 mm | - | 281 W/m² | - |
| 1788530658 | 28.33° C | 82% | 1015.4 hPa | 0 mm | - | 226 W/m² | - |
| 1788530357 | 28.33° C | 80% | 1015.5 hPa | 0 mm | - | 190 W/m² | - |
| 1788530057 | 28.33° C | 81% | 1015.5 hPa | 0 mm | - | 196 W/m² | - |
| 1788529754 | 28.89° C | 79% | 1015.5 hPa | 0 mm | - | 139 W/m² | - |
| 1788529453 | 28.33° C | 81% | 1015.5 hPa | 0 mm | - | 180 W/m² | - |
| 1788529165 | 27.78° C | 83% | 1015.5 hPa | 0 mm | - | 164 W/m² | - |
| 1788528843 | 27.78° C | 83% | 1015.5 hPa | 0 mm | - | 133 W/m² | - |
| 1788528538 | 27.22° C | 83% | 1015.5 hPa | 0 mm | - | 172 W/m² | - |
| 1788528233 | 27.22° C | 84% | 1015.5 hPa | 0 mm | - | 213 W/m² | - |
| 1788527933 | 27.22° C | 85% | 1015.3 hPa | 0 mm | - | 181 W/m² | - |
| 1788527629 | 26.67° C | 86% | 1015.6 hPa | 0 mm | - | 165 W/m² | - |
| 1788527329 | 26.11° C | 88% | 1015.5 hPa | 0 mm | - | 187 W/m² | - |
| 1788527028 | 26.11° C | 88% | 1015.5 hPa | 0 mm | - | 127 W/m² | - |
| 1788526723 | 26.11° C | 89% | 1015.2 hPa | 0 mm | - | 119 W/m² | - |
| 1788526420 | 25.56° C | 90% | 1015.1 hPa | 0 mm | - | 117 W/m² | - |
| 1788526118 | 25.56° C | 90% | 1015.4 hPa | 0 mm | - | 98 W/m² | - |
| 1788525815 | 25° C | 91% | 1015.5 hPa | 0 mm | - | 91 W/m² | - |
| 1788525510 | 25° C | 92% | 1015.4 hPa | 0 mm | - | 92 W/m² | - |
| 1788525205 | 24.44° C | 94% | 1015.4 hPa | 0 mm | - | 110 W/m² | - |
| 1788524900 | 23.89° C | 94% | 1015.2 hPa | 0 mm | - | 93 W/m² | - |
| 1788524600 | 23.33° C | 95% | 1015.3 hPa | 0 mm | - | 76 W/m² | - |
| 1788524295 | 23.33° C | 95% | 1015.4 hPa | 0 mm | - | 66 W/m² | - |
| 1788523992 | 22.78° C | 95% | 1015.4 hPa | 0 mm | - | 56 W/m² | - |
* Rain latest hour (hover to see other rain measurements)
** Current wind speed in m/s (hover to see current wind gust speed)